Location: LDNL
(36.4545°S, 141.6685°E)
Time: 12:25:34
(UTC+10:00)

Explorer 7 - Pass Details

Date: 11 August 2022
Orbit: 482 x 668 km, 50.3° (Epoch: 26 September)

Event Time Altitude Azimuth Distance (km) Brightness Sun altitude
Rises 20:54:51 0° 259° (W) 2,996 11.6 -36.2°
Reaches altitude 10° 20:57:54 10° 240° (WSW) 2,063 10.4 -36.8°
Enters shadow 20:59:03 14° 228° (SW) 1,794 9.9 -37.0°
Maximum altitude 21:01:13 18° 196° (SSW) 1,555 - -37.5°
Drops below altitude 10° 21:04:26 10° 152° (SSE) 1,997 - -38.1°
Sets 21:07:19 0° 132° (SE) 2,865 - -38.7°
